This is the latest recevied weather packets stored in our database for station/object AA8FM-13. If no packets are shown the sender has not sent any weather packets the latest 10 day(s).
| Time | Temp. | Humidity | Pressure | Rain* | Wind** | Luminosity | Snow |
|---|---|---|---|---|---|---|---|
| 1778274411 | 18.33° C | 45% | 1008.3 hPa | 0 mm | - | 380 W/m² | - |
| 1778274109 | 17.78° C | 45% | 1008.5 hPa | 0 mm | - | 101 W/m² | - |
| 1778273806 | 18.33° C | 44% | 1008.4 hPa | 0 mm | - | 105 W/m² | - |
| 1778273502 | 19.44° C | 44% | 1008.6 hPa | 0 mm | - | 118 W/m² | - |
| 1778273198 | 20° C | 46% | 1008.4 hPa | 0 mm | - | 485 W/m² | - |
| 1778272894 | 19.44° C | 49% | 1008.4 hPa | 0 mm | - | 137 W/m² | - |
| 1778272590 | 18.89° C | 46% | 1008.8 hPa | 0 mm | - | 476 W/m² | - |
| 1778271745 | 18.33° C | 47% | 1009.1 hPa | 0 mm | - | 577 W/m² | - |
| 1778271442 | 18.33° C | 47% | 1009.1 hPa | 0 mm | - | 577 W/m² | - |
| 1778271138 | 17.78° C | 48% | 1009.1 hPa | 0 mm | - | 136 W/m² | - |
| 1778270835 | 17.78° C | 46% | 1009.5 hPa | 0 mm | - | 132 W/m² | - |
| 1778270531 | 17.78° C | 46% | 1009.4 hPa | 0 mm | - | 176 W/m² | - |
| 1778270228 | 17.78° C | 48% | 1009.6 hPa | 0 mm | - | 143 W/m² | - |
| 1778269924 | 18.89° C | 46% | 1009.4 hPa | 0 mm | - | 141 W/m² | - |
| 1778269621 | 18.89° C | 46% | 1009.4 hPa | 0 mm | - | 639 W/m² | - |
| 1778269317 | 18.89° C | 45% | 1009.4 hPa | 0 mm | - | 464 W/m² | - |
| 1778269015 | 18.89° C | 45% | 1009.5 hPa | 0 mm | - | 606 W/m² | - |
| 1778268711 | 19.44° C | 52% | 1009.9 hPa | 0 mm | - | 638 W/m² | - |
| 1778268408 | 18.89° C | 50% | 1009.9 hPa | 0 mm | - | 667 W/m² | - |
| 1778268105 | 18.33° C | 50% | 1010.1 hPa | 0 mm | - | 707 W/m² | - |
| 1778267803 | 18.33° C | 51% | 1010.1 hPa | 0 mm | - | 661 W/m² | - |
| 1778267498 | 18.33° C | 50% | 1010 hPa | 0 mm | - | 647 W/m² | - |
| 1778267196 | 17.78° C | 49% | 1010.5 hPa | 0 mm | - | 448 W/m² | - |
| 1778266892 | 17.22° C | 48% | 1010.6 hPa | 0 mm | - | 348 W/m² | - |
| 1778266589 | 16.67° C | 53% | 1010.7 hPa | 0 mm | - | 350 W/m² | - |
* Rain latest hour (hover to see other rain measurements)
** Current wind speed in m/s (hover to see current wind gust speed)